Regional Weather Roundup
Issued by NWS

Home | Current Version | Previous Version | Text Only | Print | Product List | Glossary Off
Versions: 1 2 3 4 5 6 7 8 9 10 11 12 13 14 15 16 17 18 19 20 21 22 23 24 25 26 27 28 29 30 31 32 33 34 35 36 37 38 39 40 41 42 43 44 45 46 47 48 49 50

000
ASUS43 KMPX 191310
RWRMN
WEATHER ROUNDUP FOR MINNESOTA
NATIONAL WEATHER SERVICE TWIN CITIES/CHANHASSEN MN
700 AM CST FRI JAN 19 2018


NOTE: "FAIR" INDICATES FEW OR NO CLOUDS BELOW 12,000 FEET WITH NO
SIGNIFICANT WEATHER AND/OR OBSTRUCTIONS TO VISIBILITY. N/A MEANS
CURRENT SKY AND/OR WEATHER CONDITIONS ARE NOT AVAILABLE.

MNZ060>063-068>070-191400-
   Twin Cities Metro

CITY           SKY/WX    TMP DP  RH WIND       PRES   REMARKS
BLAINE         CLOUDY    34  28  80 S7        29.60F WCI  28
LAKEVILLE      FAIR      27  25  93 S6        29.63F WCI  20
SOUTH ST PAUL  FAIR      28  24  84 S5        29.63F WCI  23
LAKE ELMO      FAIR      30  27  86 S8        29.63F WCI  23
$$
MNZ001>005-007-008-013>017-022>024-027-028-191400-
   Northwest Minnesota

CITY           SKY/WX    TMP DP  RH WIND       PRES   REMARKS
BEMIDJI        FAIR      33  26  74 SW3       29.46F
HALLOCK        FAIR      28  27  93 SE10      29.40F WCI  19
ROSEAU         FAIR      36  30  80 SW10G17   29.39S
WARROAD        FAIR      34  28  80 SW10G17   29.38S VSB 1   WCI  26
CROOKSTON      FAIR      30  27  86 S13       29.47F WCI  20
FOSSTON        FAIR      28  25  86 S10       29.48F WCI  19
DETROIT LAKES  FAIR      32  27  80 CALM      29.51F
MOORHEAD       FAIR      30  25  80 S7        29.52S WCI  23
MAHNOMEN       FAIR      29  25  84 S9        29.49F WCI  21
$$
MNZ006-009>011-018-025>026-191400-
   North Central Minnesota

CITY           SKY/WX    TMP DP  RH WIND       PRES   REMARKS
FLAG ISLAND    FAIR      32  27  80 SW9       29.34S WCI  24
WASKISH        FAIR      36  28  75 SW13      29.42F
LONGVILLE      FAIR      28  25  86 CALM      29.50F
COOK           MOCLDY    28  25  86 S3        29.45F
WALKER         FAIR      33  24  70 S5        29.48F WCI  29
$$
MNZ012-019>021-037-191400-
   Northeast Minnesota

CITY           SKY/WX    TMP DP  RH WIND       PRES   REMARKS
ELY            FAIR      30  25  80 SW6       29.44F WCI  24
EVELETH        FAIR      22  19  88 W3        29.49S
DULUTH HARBOR  FAIR      28  27  93 W7        29.57R WCI  21
TWO HARBORS    FAIR      27  21  80 SW7       29.49F WCI  19
G MARAIS ARPRT CLOUDY    25  21  86 S3        29.46F FOG
$$
MNZ029>031-032-039>041-046>048-054>057-064-191400-
   West Central Minnesota

CITY           SKY/WX    TMP DP  RH WIND       PRES   REMARKS
FERGUS FALLS   FAIR      30  25  80 CALM      29.52S
MORRIS         CLOUDY    28  25  86 SE9       29.52F WCI  20
ELBOW LAKE     FAIR      29  25  88 E9        29.52S WCI  20
WADENA         FAIR      27  21  80 CALM      29.51R
GLENWOOD       FAIR      30  27  86 S7        29.54F WCI  23
BENSON         CLOUDY    34  27  75 S8        29.55F WCI  27
ORTONVILLE     CLOUDY    30  25  80 SE5       29.53S WCI  25
MADISON        CLOUDY    34  28  80 CALM      29.53F
WILLMAR        FAIR      28  27  93 SE6       29.58F WCI  22
$$
MNZ033>034-036-042>043-049>051-058-059-191400-
   Central Minnesota

CITY           SKY/WX    TMP DP  RH WIND       PRES   REMARKS
SAUK CENTRE      N/A     30  25  81 S7        29.54S WCI  24
PAYNESVILLE    FAIR      32  28  86 S5        29.56F WCI  27
AITKIN         FAIR      30  25  80 CALM      29.51R
PINE RIVER     FAIR      27  21  80 CALM      29.56R
STAPLES        FAIR      28  23  80 CALM      29.51S
LONG PRAIRIE   FAIR      30  27  86 S7        29.52F WCI  23
LITTLE FALLS   FAIR      30  23  74 S3        29.54F
LITCHFIELD     FAIR      32  28  86 CALM      29.58F
BUFFALO        FAIR      31  27  84 S5        29.60F WCI  26
MAPLE LAKE     FAIR      32  29  88 MISG      29.58F
HUTCHINSON     FAIR      29  27  94 SE6       29.59F WCI  23
$$
MNZ037-044-045-052-053-191400-
   East Central Minnesota

CITY           SKY/WX    TMP DP  RH WIND       PRES   REMARKS
PRINCETON      FAIR      32  27  80 S6        29.57F WCI  26
MORA           FAIR      27  25  93 CALM      29.58F
CAMBRIDGE      FAIR      32  27  80 S8        29.58F WCI  25
RUSH CITY      FAIR      28  26  89 S6        29.58F WCI  22
MOOSE LAKE     FAIR      28  27  93 S10       29.50F WCI  19
HINCKLEY       FAIR      28  28 100 S6        29.56F WCI  22
CLOQUET        FAIR      28  25  86 CALM      29.53R
MCGREGOR       FAIR      32  27  80 CALM      29.52R
$$
MNZ071>073-080-081-089-090-097-098-191400-
   Southwest Minnesota

CITY           SKY/WX    TMP DP  RH WIND       PRES   REMARKS
MONTEVIDEO     CLOUDY    30  27  86 CALM      29.55S
GRANITE FALLS  CLOUDY    33  28  82 S8        29.57S WCI  26
CANBY          CLOUDY    43  28  55 CALM      29.54F
OLIVIA         CLOUDY    32  27  80 S7        29.56F WCI  26
PIPESTONE      CLOUDY    27  23  86 S9        29.59F WCI  17
WINDOM         CLOUDY    32  16  51 S6        29.61F WCI  26
JACKSON        CLOUDY    28  25  86 S15       29.63F WCI  17
SLAYTON        CLOUDY    31  27  86 S8        29.60F WCI  23
$$
MNZ065>067-074>077-082>085-091>093-191400-
   South Central Minnesota

CITY           SKY/WX    TMP DP  RH WIND       PRES   REMARKS
NEW ULM        CLOUDY    28  25  86 S9        29.60F WCI  20
ST JAMES       CLOUDY    30  27  86 S9        29.62F WCI  22
FARIBAULT      FAIR      28  25  86 S8        29.64F WCI  20
WASECA         FAIR      28  23  80 S10       29.65F WCI  19
ALBERT LEA     FAIR      28  21  74 S3        29.66F
$$
MNZ078>079-086>088-094>096-191400-
   Southeast Minnesota

CITY           SKY/WX    TMP DP  RH WIND       PRES   REMARKS
RED WING       FAIR      27  19  74 SE3       29.66F
STANTON        FAIR      31  25  78 S9        29.63F WCI  23
DODGE CENTER   FAIR      27  21  80 S13       29.66F WCI  16
WINONA         FAIR      28  23  80 SE6       29.71F WCI  22
PRESTON        FAIR      26  20  79 SW13      29.71S WCI  15
$$
ABBREVIATIONS USED IN REMARKS
   TC - TEMPERATURES IN CELSIUS
  WCI - WIND CHILL INDEX
   HX - HEAT INDEX
  VSB - VISIBILITY
$$




USA.gov is the U.S. government's official web portal to all federal, state and local government web resources and services.